星链-5809 (STARLINK-5809 )

导读 | 星芒AI

STARLINK-5809 是 SpaceX 星链计划中的一颗低轨通信卫星,属于该计划的第五批发射任务。该卫星部署在约 550 公里的近地轨道,旨在为全球用户提供高速互联网服务。作为星链星座的一部分,STARLINK-5809 采用先进推进系统和激光通信技术,支持卫星间高速数据传输,提高网络稳定性和覆盖范围。该卫星的运行有助于增强偏远地区的网络连接能力,推动全球互联网普及。

基本信息
目录编号:
55775
目录名称:
STARLINK-5809
国际标识:
2023-028AL
轨道中心:
EARTH
卫星名称:
星链-5809
卫星全名:
星链-5809 (STARLINK-5809 )
卫星状态:
在轨 (已飞行977 天)
发射日期:
2023-03-03 UTC
国别 :
美国 (US)
星等 :
--
轨道信息
数据来源 国际轨道数据
星历时间: 2025-11-04T08:57:01+0800
11小时前
查看轨道信息
半长轴: 6950.209km
偏心率: 0.0003083
轨道倾角: 69.998°
近地点辐角 272.255°
升交点赤经 181.195°
平近点角 87.826°
近地点: 569.931km
远地点: 574.217km
周期: 96.107分钟
每日圈数: 14.98325
详细信息
固有亮度:
5
最大亮度:
2.5
卫星平台:
Starlink v1.5
覆盖范围:
全球
运营商:
太空探索技术公司
运营商所在国:
美国
制造商(研发单位):
太空探索技术公司
制造商所在国:
美国
使用方式:
暂无
卫星简介
星链(Starlink)计划是由太空探索技术公司(SpaceX)提出的一个巨型低轨卫星互联网星座项目,计划在2019年至2024年间在太空搭建由约1.2万颗卫星组成的“星链”网络,其中1584颗将部署在地球上空550千米处的近地轨道,并从2020年开始工作。该卫星仍在工作。
2D轨道图
3D轨道图
轨道高度分析图
轨道倾角分析图
轨道综合分析图
查看轨道综合分析图